Location: *
(2.5500°S, 65.9667°W)
Time: 13:14:27
(UTC+00:00)

Cosmos 2173 Rocket - Pass Details

Date: 31 May 2022
Orbit: 945 x 1000 km, 83.0° (Epoch: 28 June)

Event Time Altitude Azimuth Distance (km) Brightness Sun altitude
Rises 23:20:03 0° 216° (SW) 3,663 7.2 -14.5°
Reaches altitude 10° 23:23:39 10° 237° (WSW) 2,701 6.8 -15.3°
Maximum altitude 23:27:10 16° 272° (W) 2,292 6.9 -16.1°
Drops below altitude 10° 23:30:40 10° 307° (NW) 2,674 7.5 -16.9°
Sets 23:34:14 0° 329° (NNW) 3,607 7.9 -17.8°
